INSAT-3DS

Last updated on Thu Nov 21 2024 00:02:20 GMT+0000 (Coordinated Universal Time)

1 58990U 24033A 24325.54100517 -.00000155 00000+0 00000+0 0 9992 2 58990 0.0621 268.5496 0001748 341.2809 87.0862 1.00272336 41313
UTC large
Height (km)
Speed (km/s)
/
Latitude / Longitude
Inclination (degrees)
Orbital Period (minutes)
Azimuth
Elevation
Range (km)
Doppler Factor

Next 0 passes for location: London (51.5072 / 0.1276)

Sorry there are no passes over London.